Time,TemperatureF,DewpointF,PressureIn,WindDirection,WindDirectionDegrees,WindSpeedMPH,WindSpeedGustMPH,Humidity,HourlyPrecipIn,Conditions,Clouds,dailyrainin,SolarRadiationWatts/m^2,SoftwareType,DateUTC
2013-08-16 00:00:00,54.7,52.4,30.15,SW,229,0.0,0.0,92,0.00,,,0.00,0,Wunderground v.1.15,2013-08-16 04:00:00,
2013-08-16 00:05:00,54.6,52.6,30.15,SW,229,0.0,0.0,93,0.00,,,0.00,0,Wunderground v.1.15,2013-08-16 04:05:00,
2013-08-16 00:15:00,54.2,51.9,30.15,SW,229,0.0,0.0,92,0.00,,,0.00,0,Wunderground v.1.15,2013-08-16 04:15:00,
2013-08-16 00:20:00,54.0,51.7,30.15,SW,229,0.0,0.0,92,0.00,,,0.00,0,Wunderground v.1.15,2013-08-16 04:20:00,
2013-08-16 00:30:00,53.8,51.8,30.15,SW,229,0.0,0.0,93,0.00,,,0.00,0,Wunderground v.1.15,2013-08-16 04:30:00,
2013-08-16 00:35:00,53.7,51.7,30.15,WSW,243,0.0,0.0,93,0.00,,,0.00,0,Wunderground v.1.15,2013-08-16 04:35:00,
2013-08-16 00:45:00,53.5,51.8,30.15,WSW,243,0.0,0.0,94,0.00,,,0.00,0,Wunderground v.1.15,2013-08-16 04:45:00,
2013-08-16 00:55:00,53.3,51.6,30.15,WSW,243,0.0,0.0,94,0.00,,,0.00,0,Wunderground v.1.15,2013-08-16 04:55:00,
2013-08-16 01:00:00,53.4,51.7,30.15,WSW,243,0.0,0.0,94,0.00,,,0.00,0,Wunderground v.1.15,2013-08-16 05:00:00,
2013-08-16 01:10:00,53.4,51.7,30.15,WSW,243,0.0,0.0,94,0.00,,,0.00,0,Wunderground v.1.15,2013-08-16 05:10:00,
2013-08-16 01:20:00,53.4,51.7,30.14,WSW,243,0.0,0.0,94,0.00,,,0.00,0,Wunderground v.1.15,2013-08-16 05:20:00,
2013-08-16 01:30:00,53.3,51.6,30.15,WSW,243,0.0,0.0,94,0.00,,,0.00,0,Wunderground v.1.15,2013-08-16 05:30:00,
2013-08-16 01:40:00,53.0,51.3,30.15,WSW,243,0.0,0.0,94,0.00,,,0.00,0,Wunderground v.1.15,2013-08-16 05:40:00,
2013-08-16 01:50:00,52.8,51.1,30.15,WSW,243,0.0,0.0,94,0.00,,,0.00,0,Wunderground v.1.15,2013-08-16 05:50:00,
2013-08-16 01:55:00,52.6,51.2,30.15,WSW,243,0.0,0.0,95,0.00,,,0.00,0,Wunderground v.1.15,2013-08-16 05:55:00,
2013-08-16 02:05:00,52.3,50.9,30.15,WSW,243,0.0,0.0,95,0.00,,,0.00,0,Wunderground v.1.15,2013-08-16 06:05:00,
2013-08-16 02:15:00,51.9,50.5,30.14,WSW,243,0.0,0.0,95,0.00,,,0.00,0,Wunderground v.1.15,2013-08-16 06:15:00,
2013-08-16 02:20:00,51.8,50.1,30.14,WSW,243,0.0,0.0,94,0.00,,,0.00,0,Wunderground v.1.15,2013-08-16 06:20:00,
2013-08-16 02:30:00,51.7,50.3,30.14,WSW,243,0.0,0.0,95,0.00,,,0.00,0,Wunderground v.1.15,2013-08-16 06:30:00,
2013-08-16 02:40:00,51.4,50.0,30.14,WSW,243,0.0,0.0,95,0.00,,,0.00,0,Wunderground v.1.15,2013-08-16 06:40:00,
2013-08-16 02:50:00,51.2,49.8,30.14,WSW,243,0.0,0.0,95,0.00,,,0.00,0,Wunderground v.1.15,2013-08-16 06:50:00,
2013-08-16 03:00:00,51.2,49.8,30.14,WSW,243,0.0,0.0,95,0.00,,,0.00,0,Wunderground v.1.15,2013-08-16 07:00:00,
2013-08-16 03:10:00,50.9,49.5,30.14,WSW,243,0.0,0.0,95,0.00,,,0.00,0,Wunderground v.1.15,2013-08-16 07:10:00,
2013-08-16 03:20:00,50.6,49.2,30.14,WSW,243,0.0,0.0,95,0.00,,,0.00,0,Wunderground v.1.15,2013-08-16 07:20:00,
2013-08-16 03:30:00,50.3,48.9,30.14,WSW,243,0.0,0.0,95,0.00,,,0.00,0,Wunderground v.1.15,2013-08-16 07:30:00,
2013-08-16 03:35:00,50.4,49.3,30.14,WSW,243,0.0,0.0,96,0.00,,,0.00,0,Wunderground v.1.15,2013-08-16 07:35:00,
2013-08-16 03:45:00,50.2,49.1,30.14,WSW,243,0.0,0.0,96,0.00,,,0.00,0,Wunderground v.1.15,2013-08-16 07:45:00,
2013-08-16 03:55:00,50.2,49.1,30.14,WSW,243,0.0,0.0,96,0.00,,,0.00,0,Wunderground v.1.15,2013-08-16 07:55:00,
2013-08-16 04:00:00,50.0,48.6,30.14,WSW,243,0.0,0.0,95,0.00,,,0.00,0,Wunderground v.1.15,2013-08-16 08:00:00,
2013-08-16 04:10:00,49.9,48.8,30.14,WSW,243,0.0,0.0,96,0.00,,,0.00,0,Wunderground v.1.15,2013-08-16 08:10:00,
2013-08-16 04:20:00,49.9,48.8,30.14,WSW,243,0.0,0.0,96,0.00,,,0.00,0,Wunderground v.1.15,2013-08-16 08:20:00,
2013-08-16 04:25:00,49.7,48.6,30.14,WSW,243,0.0,0.0,96,0.00,,,0.00,0,Wunderground v.1.15,2013-08-16 08:25:00,
2013-08-16 04:35:00,49.5,48.4,30.14,WSW,243,0.0,0.0,96,0.00,,,0.00,0,Wunderground v.1.15,2013-08-16 08:35:00,
2013-08-16 04:45:00,49.1,48.0,30.14,WSW,243,0.0,0.0,96,0.00,,,0.00,0,Wunderground v.1.15,2013-08-16 08:45:00,
2013-08-16 04:50:00,49.2,48.1,30.14,WSW,243,0.0,0.0,96,0.00,,,0.00,0,Wunderground v.1.15,2013-08-16 08:50:00,
2013-08-16 05:00:00,49.2,48.1,30.14,WSW,243,0.0,0.0,96,0.00,,,0.00,0,Wunderground v.1.15,2013-08-16 09:00:00,
2013-08-16 05:10:00,49.1,48.0,30.14,WSW,243,0.0,0.0,96,0.00,,,0.00,0,Wunderground v.1.15,2013-08-16 09:10:00,
2013-08-16 05:20:00,49.0,47.9,30.14,WSW,243,0.0,0.0,96,0.00,,,0.00,0,Wunderground v.1.15,2013-08-16 09:20:00,
2013-08-16 05:30:00,48.8,47.7,30.14,WSW,243,0.0,0.0,96,0.00,,,0.00,0,Wunderground v.1.15,2013-08-16 09:30:00,
2013-08-16 05:40:00,48.6,47.5,30.14,WSW,243,0.0,0.0,96,0.00,,,0.00,0,Wunderground v.1.15,2013-08-16 09:40:00,
2013-08-16 05:50:00,48.4,47.3,30.14,WSW,243,0.0,0.0,96,0.00,,,0.00,0,Wunderground v.1.15,2013-08-16 09:50:00,
2013-08-16 06:00:00,48.4,47.3,30.15,WSW,243,0.0,0.0,96,0.00,,,0.00,0,Wunderground v.1.15,2013-08-16 10:00:00,
2013-08-16 06:10:00,48.3,47.2,30.15,WSW,243,0.0,0.0,96,0.00,,,0.00,0,Wunderground v.1.15,2013-08-16 10:10:00,
2013-08-16 06:20:00,48.3,47.2,30.15,WSW,243,0.0,0.0,96,0.00,,,0.00,0,Wunderground v.1.15,2013-08-16 10:20:00,
2013-08-16 06:30:00,48.0,46.9,30.16,WSW,243,0.0,0.0,96,0.00,,,0.00,7,Wunderground v.1.15,2013-08-16 10:30:00,
2013-08-16 06:35:00,48.1,47.0,30.16,WSW,243,0.0,0.0,96,0.00,,,0.00,9,Wunderground v.1.15,2013-08-16 10:35:00,
2013-08-16 06:45:00,48.3,47.5,30.16,WSW,243,0.0,0.0,97,0.00,,,0.00,12,Wunderground v.1.15,2013-08-16 10:45:00,
2013-08-16 06:55:00,48.2,47.4,30.17,WSW,243,0.0,0.0,97,0.00,,,0.00,18,Wunderground v.1.15,2013-08-16 10:55:00,
2013-08-16 07:05:00,48.2,48.2,30.17,WSW,243,0.0,0.0,100,0.00,,,0.00,21,Wunderground v.1.15,2013-08-16 11:05:00,
2013-08-16 07:10:00,48.3,47.5,30.17,WSW,243,0.0,0.0,97,0.00,,,0.00,23,Wunderground v.1.15,2013-08-16 11:10:00,
2013-08-16 07:20:00,49.0,48.2,30.17,WSW,243,0.0,0.0,97,0.00,,,0.00,39,Wunderground v.1.15,2013-08-16 11:20:00,
2013-08-16 07:30:00,50.2,49.7,30.17,WSW,243,0.0,0.0,98,0.00,,,0.00,107,Wunderground v.1.15,2013-08-16 11:30:00,
2013-08-16 07:40:00,52.3,51.8,30.17,WSW,243,0.0,0.0,98,0.00,,,0.00,142,Wunderground v.1.15,2013-08-16 11:40:00,
2013-08-16 07:50:00,53.1,52.6,30.17,WSW,243,0.0,0.0,98,0.00,,,0.00,174,Wunderground v.1.15,2013-08-16 11:50:00,
2013-08-16 08:00:00,53.8,53.0,30.17,WSW,243,0.0,0.0,97,0.00,,,0.00,209,Wunderground v.1.15,2013-08-16 12:00:00,
2013-08-16 08:05:00,54.1,53.3,30.17,WSW,243,0.0,0.0,97,0.00,,,0.00,223,Wunderground v.1.15,2013-08-16 12:05:00,
2013-08-16 08:15:00,55.3,54.5,30.17,WSW,243,0.0,0.0,97,0.00,,,0.00,255,Wunderground v.1.15,2013-08-16 12:15:00,
2013-08-16 08:25:00,56.2,55.1,30.17,WSW,243,0.0,0.0,96,0.00,,,0.00,285,Wunderground v.1.15,2013-08-16 12:25:00,
2013-08-16 08:30:00,56.7,55.6,30.18,WSW,243,0.0,0.0,96,0.00,,,0.00,304,Wunderground v.1.15,2013-08-16 12:30:00,
2013-08-16 08:40:00,58.7,57.6,30.17,WSW,243,0.0,0.0,96,0.00,,,0.00,348,Wunderground v.1.15,2013-08-16 12:40:00,
2013-08-16 08:50:00,60.6,58.3,30.18,WSW,243,0.0,0.0,92,0.00,,,0.00,387,Wunderground v.1.15,2013-08-16 12:50:00,
2013-08-16 08:55:00,60.9,57.6,30.18,WNW,292,0.0,0.0,89,0.00,,,0.00,404,Wunderground v.1.15,2013-08-16 12:55:00,
2013-08-16 09:05:00,62.1,57.9,30.17,SSW,208,0.0,1.0,86,0.00,,,0.00,436,Wunderground v.1.15,2013-08-16 13:05:00,
2013-08-16 09:15:00,64.1,58.1,30.17,SSW,208,0.0,2.0,81,0.00,,,0.00,468,Wunderground v.1.15,2013-08-16 13:15:00,
2013-08-16 09:25:00,65.9,58.5,30.17,WNW,284,1.0,5.0,77,0.00,,,0.00,497,Wunderground v.1.15,2013-08-16 13:25:00,
2013-08-16 09:35:00,65.9,57.4,30.17,WSW,239,2.0,3.0,74,0.00,,,0.00,526,Wunderground v.1.15,2013-08-16 13:35:00,
2013-08-16 09:45:00,67.4,58.8,30.17,WNW,286,1.0,2.0,74,0.00,,,0.00,559,Wunderground v.1.15,2013-08-16 13:45:00,
2013-08-16 09:55:00,68.5,59.1,30.17,WSW,245,1.0,1.0,72,0.00,,,0.00,585,Wunderground v.1.15,2013-08-16 13:55:00,
2013-08-16 10:05:00,69.1,58.9,30.17,WNW,285,1.0,2.0,70,0.00,,,0.00,612,Wunderground v.1.15,2013-08-16 14:05:00,
2013-08-16 10:15:00,70.2,58.3,30.18,South,177,1.0,1.0,66,0.00,,,0.00,642,Wunderground v.1.15,2013-08-16 14:15:00,
2013-08-16 10:25:00,70.1,57.8,30.17,NNE,31,1.0,1.0,65,0.00,,,0.00,664,Wunderground v.1.15,2013-08-16 14:25:00,
2013-08-16 10:35:00,71.0,59.9,30.18,South,183,1.0,4.0,68,0.00,,,0.00,694,Wunderground v.1.15,2013-08-16 14:35:00,
2013-08-16 10:45:00,71.9,60.3,30.18,WNW,283,2.0,2.0,67,0.00,,,0.00,712,Wunderground v.1.15,2013-08-16 14:45:00,
2013-08-16 10:55:00,72.2,58.9,30.18,WNW,290,1.0,4.0,63,0.00,,,0.00,733,Wunderground v.1.15,2013-08-16 14:55:00,
2013-08-16 11:05:00,72.4,59.5,30.18,SW,229,1.0,1.0,64,0.00,,,0.00,761,Wunderground v.1.15,2013-08-16 15:05:00,
2013-08-16 11:15:00,73.5,59.2,30.17,South,186,2.0,2.0,61,0.00,,,0.00,779,Wunderground v.1.15,2013-08-16 15:15:00,
2013-08-16 11:25:00,73.8,59.0,30.17,SSE,162,3.0,3.0,60,0.00,,,0.00,779,Wunderground v.1.15,2013-08-16 15:25:00,
2013-08-16 11:35:00,74.3,59.5,30.18,SSW,204,1.0,2.0,60,0.00,,,0.00,810,Wunderground v.1.15,2013-08-16 15:35:00,
2013-08-16 11:45:00,74.9,59.6,30.17,WNW,285,1.0,3.0,59,0.00,,,0.00,831,Wunderground v.1.15,2013-08-16 15:45:00,
2013-08-16 11:55:00,74.3,56.1,30.17,South,176,2.0,2.0,53,0.00,,,0.00,83,Wunderground v.1.15,2013-08-16 15:55:00,
2013-08-16 12:05:00,74.3,57.1,30.17,SSW,207,1.0,2.0,55,0.00,,,0.00,742,Wunderground v.1.15,2013-08-16 16:05:00,
2013-08-16 12:15:00,75.9,58.6,30.17,SE,143,1.0,3.0,55,0.00,,,0.00,861,Wunderground v.1.15,2013-08-16 16:15:00,
2013-08-16 12:25:00,76.4,58.5,30.16,East,98,1.0,1.0,54,0.00,,,0.00,891,Wunderground v.1.15,2013-08-16 16:25:00,
2013-08-16 12:35:00,75.6,58.8,30.16,NNE,26,1.0,2.0,56,0.00,,,0.00,747,Wunderground v.1.15,2013-08-16 16:35:00,
2013-08-16 12:45:00,75.5,55.6,30.16,NNW,330,2.0,3.0,50,0.00,,,0.00,972,Wunderground v.1.15,2013-08-16 16:45:00,
2013-08-16 12:55:00,76.2,57.8,30.16,NW,324,1.0,2.0,53,0.00,,,0.00,965,Wunderground v.1.15,2013-08-16 16:55:00,
2013-08-16 13:05:00,75.7,55.7,30.16,WNW,301,2.0,2.0,50,0.00,,,0.00,236,Wunderground v.1.15,2013-08-16 17:05:00,
2013-08-16 13:10:00,75.4,57.1,30.16,WNW,283,1.0,1.0,53,0.00,,,0.00,707,Wunderground v.1.15,2013-08-16 17:10:00,
2013-08-16 13:20:00,75.8,56.4,30.16,WNW,297,2.0,4.0,51,0.00,,,0.00,227,Wunderground v.1.15,2013-08-16 17:20:00,
2013-08-16 13:30:00,77.0,58.0,30.16,WNW,284,2.0,3.0,52,0.00,,,0.00,1007,Wunderground v.1.15,2013-08-16 17:30:00,
2013-08-16 13:35:00,77.0,58.0,30.16,South,181,2.0,4.0,52,0.00,,,0.00,272,Wunderground v.1.15,2013-08-16 17:35:00,
2013-08-16 13:45:00,77.3,56.1,30.16,SE,131,2.0,3.0,48,0.00,,,0.00,248,Wunderground v.1.15,2013-08-16 17:45:00,
2013-08-16 13:55:00,76.8,58.4,30.15,NNE,14,1.0,2.0,53,0.00,,,0.00,193,Wunderground v.1.15,2013-08-16 17:55:00,
2013-08-16 14:05:00,76.1,58.8,30.15,SE,141,0.0,1.0,55,0.00,,,0.00,160,Wunderground v.1.15,2013-08-16 18:05:00,
2013-08-16 14:15:00,75.0,59.7,30.15,SE,135,1.0,3.0,59,0.00,,,0.00,223,Wunderground v.1.15,2013-08-16 18:15:00,
2013-08-16 14:25:00,75.9,59.1,30.15,NNE,29,1.0,1.0,56,0.00,,,0.00,951,Wunderground v.1.15,2013-08-16 18:25:00,
2013-08-16 14:35:00,77.5,55.7,30.15,ESE,118,2.0,2.0,47,0.00,,,0.00,244,Wunderground v.1.15,2013-08-16 18:35:00,
2013-08-16 14:40:00,77.4,57.3,30.15,NW,322,2.0,2.0,50,0.00,,,0.00,223,Wunderground v.1.15,2013-08-16 18:40:00,
2013-08-16 14:50:00,77.3,58.3,30.14,SE,143,2.0,2.0,52,0.00,,,0.00,315,Wunderground v.1.15,2013-08-16 18:50:00,
2013-08-16 15:00:00,77.5,59.5,30.14,South,176,1.0,1.0,54,0.00,,,0.00,367,Wunderground v.1.15,2013-08-16 19:00:00,
2013-08-16 15:10:00,78.6,61.1,30.14,South,175,1.0,1.0,55,0.00,,,0.00,325,Wunderground v.1.15,2013-08-16 19:10:00,
2013-08-16 15:20:00,78.1,59.0,30.14,SE,143,0.0,0.0,52,0.00,,,0.00,218,Wunderground v.1.15,2013-08-16 19:20:00,
2013-08-16 15:30:00,77.9,59.4,30.14,SE,143,0.0,1.0,53,0.00,,,0.00,204,Wunderground v.1.15,2013-08-16 19:30:00,
2013-08-16 15:40:00,76.9,61.0,30.14,East,83,0.0,0.0,58,0.00,,,0.00,206,Wunderground v.1.15,2013-08-16 19:40:00,
2013-08-16 15:50:00,76.5,57.0,30.14,South,169,1.0,1.0,51,0.00,,,0.00,132,Wunderground v.1.15,2013-08-16 19:50:00,
2013-08-16 16:00:00,75.3,61.8,30.14,SSW,195,0.0,0.0,63,0.00,,,0.00,128,Wunderground v.1.15,2013-08-16 20:00:00,
2013-08-16 16:10:00,73.8,60.9,30.14,SSW,195,0.0,0.0,64,0.00,,,0.00,104,Wunderground v.1.15,2013-08-16 20:10:00,
2013-08-16 16:20:00,73.7,61.2,30.14,SSW,195,0.0,0.0,65,0.00,,,0.00,647,Wunderground v.1.15,2013-08-16 20:20:00,
2013-08-16 16:30:00,76.9,58.5,30.14,SW,231,0.0,0.0,53,0.00,,,0.00,612,Wunderground v.1.15,2013-08-16 20:30:00,
2013-08-16 16:40:00,79.1,57.7,30.13,WNW,292,1.0,1.0,48,0.00,,,0.00,585,Wunderground v.1.15,2013-08-16 20:40:00,
2013-08-16 16:45:00,79.5,57.5,30.13,South,170,1.0,4.0,47,0.00,,,0.00,575,Wunderground v.1.15,2013-08-16 20:45:00,
2013-08-16 16:55:00,79.4,57.4,30.13,South,188,3.0,3.0,47,0.00,,,0.00,580,Wunderground v.1.15,2013-08-16 20:55:00,
2013-08-16 17:05:00,79.6,57.0,30.14,WSW,254,2.0,4.0,46,0.00,,,0.00,557,Wunderground v.1.15,2013-08-16 21:05:00,
2013-08-16 17:10:00,80.0,57.4,30.13,South,187,1.0,4.0,46,0.00,,,0.00,561,Wunderground v.1.15,2013-08-16 21:10:00,
2013-08-16 17:20:00,79.8,56.6,30.14,SSE,157,2.0,2.0,45,0.00,,,0.00,527,Wunderground v.1.15,2013-08-16 21:20:00,
2013-08-16 17:30:00,80.1,58.6,30.14,ESE,114,1.0,4.0,48,0.00,,,0.00,496,Wunderground v.1.15,2013-08-16 21:30:00,
2013-08-16 17:35:00,79.5,56.9,30.14,South,174,2.0,4.0,46,0.00,,,0.00,455,Wunderground v.1.15,2013-08-16 21:35:00,
2013-08-16 17:45:00,78.5,59.4,30.14,South,191,1.0,2.0,52,0.00,,,0.00,132,Wunderground v.1.15,2013-08-16 21:45:00,
2013-08-16 17:55:00,76.3,59.4,30.14,SE,143,0.0,0.0,56,0.00,,,0.00,176,Wunderground v.1.15,2013-08-16 21:55:00,
2013-08-16 18:05:00,74.1,59.3,30.14,SE,143,0.0,1.0,60,0.00,,,0.00,67,Wunderground v.1.15,2013-08-16 22:05:00,
2013-08-16 18:15:00,73.1,59.8,30.14,SE,143,0.0,0.0,63,0.00,,,0.00,56,Wunderground v.1.15,2013-08-16 22:15:00,
2013-08-16 18:25:00,71.9,59.1,30.15,SE,143,0.0,0.0,64,0.00,,,0.00,44,Wunderground v.1.15,2013-08-16 22:25:00,
2013-08-16 18:35:00,71.2,59.7,30.14,SE,143,0.0,0.0,67,0.00,,,0.00,54,Wunderground v.1.15,2013-08-16 22:35:00,
2013-08-16 18:45:00,71.7,56.6,30.15,SSE,166,0.0,0.0,59,0.00,,,0.00,58,Wunderground v.1.15,2013-08-16 22:45:00,
2013-08-16 18:55:00,72.8,57.6,30.15,South,187,1.0,2.0,59,0.00,,,0.00,54,Wunderground v.1.15,2013-08-16 22:55:00,
2013-08-16 19:05:00,72.7,60.3,30.15,South,181,0.0,4.0,65,0.00,,,0.00,44,Wunderground v.1.15,2013-08-16 23:05:00,
2013-08-16 19:15:00,71.6,60.1,30.15,South,181,0.0,0.0,67,0.00,,,0.00,32,Wunderground v.1.15,2013-08-16 23:15:00,
2013-08-16 19:20:00,71.0,60.3,30.15,South,181,0.0,0.0,69,0.00,,,0.00,26,Wunderground v.1.15,2013-08-16 23:20:00,
2013-08-16 19:30:00,69.9,60.1,30.15,South,181,0.0,0.0,71,0.00,,,0.00,18,Wunderground v.1.15,2013-08-16 23:30:00,
2013-08-16 19:40:00,68.9,59.5,30.15,South,181,0.0,0.0,72,0.00,,,0.00,18,Wunderground v.1.15,2013-08-16 23:40:00,
2013-08-16 19:50:00,67.8,59.2,30.16,South,181,0.0,0.0,74,0.00,,,0.00,12,Wunderground v.1.15,2013-08-16 23:50:00,
2013-08-16 20:00:00,66.9,59.1,30.15,South,181,0.0,0.0,76,0.00,,,0.00,7,Wunderground v.1.15,2013-08-17 00:00:00,
2013-08-16 20:10:00,66.0,58.9,30.15,South,181,0.0,0.0,78,0.00,,,0.00,0,Wunderground v.1.15,2013-08-17 00:10:00,
2013-08-16 20:15:00,65.6,58.6,30.15,South,181,0.0,0.0,78,0.00,,,0.00,0,Wunderground v.1.15,2013-08-17 00:15:00,
2013-08-16 20:25:00,64.6,58.6,30.16,South,181,0.0,0.0,81,0.00,,,0.00,0,Wunderground v.1.15,2013-08-17 00:25:00,
2013-08-16 20:35:00,63.6,57.7,30.16,South,181,0.0,0.0,81,0.00,,,0.00,0,Wunderground v.1.15,2013-08-17 00:35:00,
2013-08-16 20:45:00,62.8,57.2,30.16,South,181,0.0,0.0,82,0.00,,,0.00,0,Wunderground v.1.15,2013-08-17 00:45:00,
2013-08-16 20:50:00,62.5,57.3,30.16,South,181,0.0,0.0,83,0.00,,,0.00,0,Wunderground v.1.15,2013-08-17 00:50:00,
2013-08-16 21:00:00,61.9,57.0,30.17,South,181,0.0,0.0,84,0.00,,,0.00,0,Wunderground v.1.15,2013-08-17 01:00:00,
2013-08-16 21:10:00,61.5,57.3,30.17,South,181,0.0,0.0,86,0.00,,,0.00,0,Wunderground v.1.15,2013-08-17 01:10:00,
2013-08-16 21:20:00,61.3,57.4,30.18,South,181,0.0,0.0,87,0.00,,,0.00,0,Wunderground v.1.15,2013-08-17 01:20:00,
2013-08-16 21:30:00,61.1,57.2,30.18,South,183,0.0,0.0,87,0.00,,,0.00,0,Wunderground v.1.15,2013-08-17 01:30:00,
2013-08-16 21:40:00,60.9,57.0,30.18,South,183,0.0,0.0,87,0.00,,,0.00,0,Wunderground v.1.15,2013-08-17 01:40:00,
2013-08-16 21:45:00,60.6,57.0,30.18,South,183,0.0,0.0,88,0.00,,,0.00,0,Wunderground v.1.15,2013-08-17 01:45:00,
2013-08-16 21:55:00,60.2,56.6,30.19,South,183,0.0,0.0,88,0.00,,,0.00,0,Wunderground v.1.15,2013-08-17 01:55:00,
2013-08-16 22:05:00,59.7,56.5,30.19,South,183,0.0,0.0,89,0.00,,,0.00,0,Wunderground v.1.15,2013-08-17 02:05:00,
2013-08-16 22:15:00,59.2,56.3,30.19,South,183,0.0,0.0,90,0.00,,,0.00,0,Wunderground v.1.15,2013-08-17 02:15:00,
2013-08-16 22:25:00,58.8,55.9,30.19,South,183,0.0,0.0,90,0.00,,,0.00,0,Wunderground v.1.15,2013-08-17 02:25:00,
2013-08-16 22:35:00,58.4,55.8,30.19,South,183,0.0,0.0,91,0.00,,,0.00,0,Wunderground v.1.15,2013-08-17 02:35:00,
2013-08-16 22:45:00,58.0,55.4,30.19,South,183,0.0,0.0,91,0.00,,,0.00,0,Wunderground v.1.15,2013-08-17 02:45:00,
2013-08-16 22:55:00,57.8,55.5,30.19,South,183,0.0,0.0,92,0.00,,,0.00,0,Wunderground v.1.15,2013-08-17 02:55:00,
2013-08-16 23:05:00,57.6,55.3,30.20,South,183,0.0,0.0,92,0.00,,,0.00,0,Wunderground v.1.15,2013-08-17 03:05:00,
2013-08-16 23:15:00,57.4,55.1,30.19,South,183,0.0,0.0,92,0.00,,,0.00,0,Wunderground v.1.15,2013-08-17 03:15:00,
2013-08-16 23:25:00,57.3,55.3,30.19,South,183,0.0,0.0,93,0.00,,,0.00,0,Wunderground v.1.15,2013-08-17 03:25:00,
2013-08-16 23:35:00,57.1,55.1,30.19,South,183,0.0,0.0,93,0.00,,,0.00,0,Wunderground v.1.15,2013-08-17 03:35:00,
2013-08-16 23:45:00,57.0,55.0,30.19,South,183,0.0,0.0,93,0.00,,,0.00,0,Wunderground v.1.15,2013-08-17 03:45:00,
2013-08-16 23:50:00,57.0,55.0,30.19,South,183,0.0,0.0,93,0.00,,,0.00,0,Wunderground v.1.15,2013-08-17 03:50:00,
2013-08-16 23:55:00,57.0,55.0,30.19,South,183,0.0,0.0,93,0.00,,,0.00,0,Wunderground v.1.15,2013-08-17 03:55:00,